Location: Palomar Mountain Lodge
(33.3110°N, 116.8495°W)
Time: 01:51:29
(UTC-07:00)

Meteor 1-15 Rocket - Pass Details

Date: 19 May 2017
Orbit: 839 x 908 km, 81.2° (Epoch: 28 June)

Event Time Altitude Azimuth Distance (km) Brightness Sun altitude
Rises 22:38:04 0° 351° (N) 3,420 8.3 -28.8°
Reaches altitude 10° 22:40:31 10° 350° (N) 2,473 7.4 -29.1°
Enters shadow 22:45:38 74° 327° (NNW) 874 4.2 -29.7°
